Theta_e
343 348 351 353 355 356 358 358 360 362 363 364 364 366 367 367 366 365 367 369 367 365 364 363 360 359 360 360 360 362 364 364 363 364 363 361 362 365 366 365 362 357 359 362 363 362 361 361 361 361 361 359 359 356 353 355 359 358 353 350 343 342 346 353 353 350 348 346 349 350 348 350 350 351 353 352 352 355 353 351 352 353 354 355 356
346 347 348 350 351 354 356 357 360 359 363 365 365 366 368 370 369 369 369 370 368 367 366 366 366 364 362 359 359 359 359 358 359 361 358 355 360 363 363 362 361 363 361 361 362 361 361 358 357 355 355 362 362 361 359 357 358 356 353 348 347 340 340 347 349 350 344 340 339 342 345 348 350 349 348 348 351 350 353 352 349 349 350 352 354
344 346 347 349 349 351 354 356 357 359 363 363 368 368 371 368 365 364 366 366 366 368 368 367 369 368 363 361 358 353 358 356 353 354 354 352 352 353 354 354 358 358 358 360 362 360 359 358 355 356 359 357 359 359 358 356 357 355 352 348 348 348 344 348 347 350 344 345 342 339 337 337 344 345 346 348 350 349 349 349 349 348 348 351 353
342 344 343 345 345 350 353 355 356 357 362 365 368 371 368 364 364 364 363 363 362 366 364 363 362 362 362 361 357 353 350 349 350 351 350 349 348 348 350 354 354 354 352 351 351 351 352 352 353 353 355 356 355 356 356 354 355 353 349 348 348 345 343 345 351 352 349 341 333 335 337 335 331 336 342 349 349 351 348 346 349 349 348 351 351
341 341 342 344 346 348 352 354 355 355 358 361 362 363 361 361 362 363 361 361 361 363 361 360 360 357 357 355 355 353 354 351 348 346 347 344 341 343 344 349 351 351 351 351 351 350 352 352 353 354 354 355 358 358 354 354 355 352 350 346 346 344 343 346 352 353 348 345 340 331 333 333 332 335 335 344 348 349 351 349 350 348 348 349 350
341 341 339 341 345 350 353 355 354 355 356 358 360 360 361 362 364 362 360 359 359 356 356 349 349 348 347 346 345 342 341 340 340 340 339 340 338 342 346 349 350 351 351 350 350 350 351 353 353 352 352 353 355 356 354 352 351 349 349 350 350 354 348 348 348 349 343 346 342 340 339 334 333 339 341 335 349 346 351 353 351 352 358 354 357
341 341 342 343 346 349 352 354 353 352 355 358 357 360 362 362 360 355 352 353 350 349 348 350 348 348 346 343 341 339 338 342 346 345 345 345 346 346 347 349 351 349 350 350 349 350 351 352 352 352 351 352 354 353 351 352 351 349 350 351 351 352 352 347 345 345 348 341 335 338 340 342 344 337 333 335 331 343 350 347 347 349 355 357 352
339 341 343 345 348 349 351 355 354 350 355 357 357 361 360 356 352 350 350 348 350 352 351 352 348 346 344 344 344 342 340 342 344 346 348 349 347 345 346 346 350 349 348 350 350 349 350 352 352 352 354 355 354 353 353 352 346 347 350 353 352 352 350 347 343 345 344 342 344 340 342 344 344 340 337 334 332 329 335 343 345 346 353 352 350
341 341 343 344 348 349 353 355 354 353 356 357 359 360 355 350 350 352 350 352 353 353 353 350 348 347 346 344 343 344 345 344 343 343 344 346 345 344 346 346 346 347 347 346 348 349 350 351 354 354 353 353 353 352 353 352 349 350 350 352 351 351 350 350 347 346 346 344 344 344 345 343 340 339 339 336 330 330 334 335 339 343 345 347 349
342 343 344 345 348 350 353 355 354 353 359 361 359 354 349 350 351 351 351 353 354 353 351 350 348 347 347 348 346 344 345 347 346 346 346 346 344 344 345 345 344 346 347 347 348 348 348 350 350 350 350 351 350 351 350 351 351 350 351 347 346 346 350 349 346 345 347 347 341 338 337 338 338 335 333 335 336 333 333 334 336 336 340 345 347
341 342 345 347 349 349 353 354 355 357 359 359 353 350 348 349 352 351 352 351 353 351 351 350 351 350 349 345 344 345 346 344 343 345 344 345 345 344 344 344 345 344 344 346 347 348 348 348 347 348 350 350 351 351 350 349 347 347 349 349 346 347 346 345 344 343 345 347 346 344 340 338 337 336 335 335 331 331 334 335 337 337 336 339 350
342 342 344 346 349 349 352 353 357 358 357 354 348 349 348 350 352 351 351 351 351 353 353 352 351 351 347 347 345 345 344 342 342 342 343 343 344 342 343 343 344 344 345 344 345 343 346 346 348 348 348 351 350 351 350 351 348 348 348 350 350 350 349 345 346 343 339 338 340 344 345 340 342 341 340 340 333 335 337 337 335 340 339 340 343
341 342 345 345 347 347 350 356 358 355 353 351 347 347 350 352 352 351 351 350 351 353 352 352 350 350 348 345 344 345 343 344 344 343 343 343 343 342 342 340 341 341 342 343 342 343 345 345 346 347 348 350 350 349 348 349 350 349 349 349 350 349 348 346 343 343 344 343 341 338 344 340 341 346 344 340 340 340 334 332 334 339 334 336 341
342 341 343 346 348 348 353 357 355 353 352 348 349 348 350 352 352 351 351 350 352 352 352 350 348 348 348 346 345 344 344 342 342 342 343 343 343 342 342 340 340 340 341 342 343 344 344 344 345 345 348 351 353 353 352 352 351 350 348 348 348 348 349 347 347 346 346 346 347 345 344 339 339 343 346 344 341 339 338 336 335 337 336 333 341
336 336 337 342 348 352 354 355 354 352 350 346 347 348 352 352 351 351 349 350 352 352 350 348 348 349 349 347 344 345 342 343 342 343 343 343 343 342 343 342 341 343 342 344 345 345 344 345 344 344 344 348 352 352 348 346 347 346 345 347 347 346 346 346 345 345 343 341 341 340 341 341 345 345 345 344 343 340 340 341 340 332 332 333 334
339 336 340 345 351 355 354 353 353 350 349 347 348 350 351 351 352 350 350 352 352 351 349 348 348 349 347 345 343 343 343 343 343 344 343 342 342 342 342 344 344 344 344 345 344 344 344 344 344 343 344 345 346 347 348 344 343 343 343 344 345 344 342 342 343 344 343 342 342 344 341 340 340 340 341 340 344 341 340 340 338 338 328 327 333
342 336 333 345 351 353 352 352 351 349 347 346 350 351 352 351 349 349 352 353 351 350 348 348 348 347 346 346 344 342 342 342 341 341 340 341 341 341 341 342 344 344 343 344 344 345 345 344 343 342 343 345 345 345 344 345 345 344 342 343 344 344 342 341 343 343 343 341 343 341 342 341 342 341 341 341 340 337 337 340 341 333 332 329 328
345 348 343 344 347 351 349 350 350 349 348 349 352 353 353 351 349 348 350 351 350 349 348 348 348 347 347 345 345 345 343 342 341 341 343 341 340 342 343 343 342 342 342 343 344 344 343 344 343 343 344 345 344 345 346 346 346 345 344 343 343 343 342 342 343 342 342 342 342 342 341 339 342 344 341 339 340 341 338 335 336 334 334 330 332
343 346 346 342 350 350 347 347 348 349 350 351 354 354 351 349 350 348 349 351 350 348 348 349 349 347 347 346 345 345 345 344 343 343 342 341 340 340 341 341 342 343 342 343 343 342 342 342 342 341 342 340 341 342 343 342 344 343 342 340 340 342 341 340 342 340 339 338 338 338 339 341 344 341 342 343 342 339 335 335 337 336 336 335 332
342 345 341 340 347 348 345 344 343 346 348 350 352 349 345 346 349 349 349 350 349 348 349 348 350 348 346 346 345 345 344 343 343 343 341 340 340 340 341 340 341 341 340 340 341 341 341 341 340 339 339 339 339 340 339 341 342 343 343 342 340 341 341 341 340 340 338 336 335 335 337 337 338 340 342 343 344 343 341 338 338 340 340 338 332
344 346 346 347 348 346 344 342 341 345 348 349 347 344 341 342 345 345 346 346 346 348 348 349 349 348 348 346 345 344 344 344 343 343 342 341 341 341 341 341 342 341 341 339 339 340 341 341 341 342 341 342 342 342 343 344 343 342 342 342 341 341 340 339 339 339 338 336 336 337 337 337 336 334 335 336 339 341 342 342 340 338 337 338 337
346 347 344 345 346 344 343 341 341 344 345 345 343 340 338 341 342 341 340 341 341 346 347 349 348 347 346 346 346 344 343 344 343 342 341 340 340 339 341 342 340 341 340 338 339 339 340 341 341 343 343 343 343 344 341 341 340 341 342 340 338 340 339 338 338 337 335 334 334 334 333 334 336 334 334 335 335 334 336 337 338 337 337 336 339
347 347 342 340 346 344 342 342 343 346 347 344 341 337 337 339 340 340 339 340 340 342 347 350 348 347 346 345 343 342 342 342 341 340 337 337 336 337 338 338 338 338 340 339 338 339 340 341 342 343 343 343 343 344 341 340 339 341 341 340 339 339 338 337 336 334 333 334 333 333 333 334 333 332 332 332 333 333 334 336 337 338 337 338 338
346 344 340 343 346 345 344 342 345 347 347 342 339 339 337 337 336 338 338 339 339 337 341 348 348 346 345 343 342 342 341 339 336 338 336 335 334 334 337 336 337 335 335 339 339 340 339 340 340 342 343 345 344 345 345 341 339 340 341 341 341 339 337 336 335 334 333 333 332 332 332 331 330 328 328 329 330 331 331 332 336 338 338 339 340
348 346 346 348 346 343 345 345 346 347 346 343 340 338 337 338 337 335 336 336 337 338 336 342 346 344 343 342 341 340 340 340 338 334 334 333 332 332 333 333 334 334 335 336 337 338 338 338 339 342 342 342 343 342 340 339 341 342 342 340 341 339 337 336 335 334 333 332 332 334 331 330 329 326 327 327 328 328 329 330 333 334 337 337 337
350 350 348 347 347 345 345 345 346 347 344 343 343 339 339 338 337 336 334 335 335 337 337 338 338 339 340 340 341 340 338 338 336 335 334 335 335 335 334 333 333 331 333 331 333 334 335 336 338 342 345 345 345 344 346 345 344 341 340 340 339 337 336 336 335 332 332 333 333 333 330 330 328 327 326 326 325 324 324 326 328 332 333 334 338
350 350 348 350 349 344 345 346 346 346 345 344 343 339 338 340 338 334 335 335 338 338 340 339 337 334 337 337 338 339 340 337 338 337 338 336 335 334 334 333 333 333 332 331 332 334 335 335 337 340 340 340 343 342 343 345 344 344 342 341 339 338 337 335 333 332 332 333 334 333 330 329 329 327 325 324 323 323 323 324 326 330 332 333 334
353 351 349 348 349 347 347 348 349 347 347 345 344 340 340 340 338 336 335 335 336 341 341 339 338 337 337 336 338 338 339 338 338 339 339 338 337 337 338 337 336 334 331 331 331 331 332 334 335 336 337 339 339 340 342 342 342 342 341 339 338 336 335 333 333 333 333 332 332 331 329 330 329 328 327 326 324 323 323 323 324 327 331 332 330
351 351 350 349 348 348 350 350 349 348 346 345 342 341 342 343 339 340 336 337 341 343 342 340 340 339 339 339 339 340 339 339 338 339 338 338 338 338 337 337 336 334 333 331 332 332 334 334 335 336 338 339 340 340 341 342 341 342 338 334 334 334 333 333 333 333 333 333 331 331 330 329 330 322 316 316 316 315 321 322 322 323 324 326 330
349 350 350 350 350 351 351 351 348 347 345 343 341 342 341 340 337 337 340 339 343 344 344 342 339 339 340 341 340 340 339 339 339 338 338 338 337 337 336 335 334 333 334 334 335 335 333 333 333 335 338 338 340 340 337 333 334 340 337 335 334 334 333 334 333 333 334 332 331 330 331 326 318 318 318 317 315 316 315 319 321 321 321 322 324
349 350 350 351 352 353 352 349 347 346 345 342 342 343 344 336 335 336 340 341 342 345 344 343 341 340 340 341 341 340 340 339 339 339 338 338 338 337 337 335 334 334 335 336 335 333 332 333 333 334 336 337 337 338 330 329 329 331 336 336 334 333 333 332 332 334 334 333 331 330 331 329 327 324 328 320 319 317 317 315 314 314 315 319 321
347 349 351 351 352 353 351 349 346 347 345 343 344 340 339 338 335 336 338 340 342 344 344 344 342 341 340 340 339 339 339 338 339 339 339 339 338 337 336 335 334 333 334 334 333 333 334 334 335 336 336 336 336 335 323 326 329 328 331 336 334 332 331 331 331 332 334 334 332 331 331 332 332 332 330 328 326 321 317 316 314 314 315 315 315
346 348 349 350 351 352 352 349 347 345 344 345 344 339 341 340 339 341 341 341 341 342 345 344 342 341 340 340 340 339 338 338 339 339 339 338 338 336 335 334 332 333 334 334 334 333 333 335 335 335 335 335 335 329 322 325 327 326 327 331 334 334 331 330 331 333 333 333 334 332 332 332 333 326 331 330 329 328 320 316 315 316 317 317 320
344 347 348 351 352 351 351 350 347 347 345 345 345 343 345 343 340 342 340 342 344 344 344 343 342 341 340 340 339 339 338 339 339 339 339 338 337 336 334 333 332 333 334 333 333 332 332 333 333 333 333 333 334 330 322 323 323 324 325 328 335 334 333 333 333 332 332 335 334 333 331 331 332 333 332 331 329 326 325 324 323 324 324 324 319
345 346 347 350 351 352 352 349 347 345 345 343 343 345 345 343 342 341 341 342 343 344 343 343 341 341 340 339 338 338 338 339 339 339 339 338 337 336 334 333 332 331 332 334 332 331 332 332 331 330 331 331 333 323 320 321 320 320 321 325 335 335 333 335 333 333 333 333 334 334 333 332 333 332 332 328 327 326 323 321 323 323 323 325 326
345 347 349 350 350 351 350 349 348 345 342 342 343 344 342 342 343 341 341 344 344 343 342 341 339 340 339 339 338 339 339 339 339 339 338 337 337 336 334 334 333 332 334 333 332 332 330 330 331 331 331 331 331 320 319 319 318 318 321 333 335 335 334 334 334 333 332 336 336 336 334 333 333 332 324 318 319 322 320 321 323 322 322 323 325
346 347 348 351 352 352 351 350 347 344 343 341 342 342 342 341 341 338 341 342 343 343 342 340 339 338 339 339 339 338 339 339 339 338 339 338 336 335 334 335 333 332 332 331 331 330 332 330 332 332 331 332 333 326 316 316 316 317 320 336 335 335 334 330 332 333 333 336 337 337 335 334 333 332 323 318 317 312 319 321 323 322 321 322 323
346 349 349 352 352 352 352 348 346 345 344 343 342 343 344 342 341 339 338 340 342 341 341 340 338 338 339 339 340 339 339 338 339 337 337 337 335 335 334 334 331 330 329 331 331 331 333 333 331 331 330 330 328 325 313 311 311 314 323 335 334 334 332 333 330 331 332 335 337 334 333 333 333 332 320 317 315 315 319 320 321 321 320 321 322
346 347 349 350 352 352 351 350 348 345 345 346 345 343 342 342 340 337 337 339 341 341 340 339 339 339 339 339 339 339 339 337 337 337 337 335 335 335 334 334 332 333 333 333 332 331 331 332 329 330 331 327 329 327 310 310 310 314 322 337 335 334 331 330 328 329 331 330 331 333 333 330 329 326 316 313 312 312 317 318 320 320 320 320 321
347 350 353 354 354 353 350 348 346 348 350 349 346 343 341 340 340 338 336 337 340 341 341 341 341 340 339 340 340 340 340 338 337 337 337 336 336 334 333 333 332 331 330 331 330 330 329 330 332 330 329 329 331 331 330 309 311 312 315 330 335 332 329 328 328 328 328 329 329 331 331 323 316 313 309 308 308 307 312 317 320 322 320 320 324
344 347 351 353 352 350 348 347 349 351 350 349 346 346 344 344 345 344 340 338 340 343 343 342 342 339 339 340 341 341 339 338 337 336 336 336 335 334 335 334 330 330 330 331 330 330 329 330 331 332 332 333 331 333 330 312 309 312 312 317 330 329 330 329 328 326 326 325 326 327 329 325 315 309 307 306 304 305 306 316 322 324 323 321 314
345 349 350 351 347 350 349 347 351 352 351 349 350 349 348 347 345 344 345 343 343 343 343 343 343 341 339 339 340 342 340 338 338 338 337 336 336 336 335 333 330 332 332 331 332 331 330 330 331 332 333 334 335 335 335 315 309 307 307 309 322 327 327 325 324 325 326 326 327 327 330 325 311 309 306 303 302 304 307 317 324 313 309 311 318
346 346 347 342 343 343 340 340 341 343 347 350 350 349 349 347 345 347 347 346 344 343 343 343 343 341 342 340 341 340 339 338 338 338 336 336 338 338 337 337 335 333 331 330 331 331 330 329 331 332 331 331 334 338 326 331 309 309 305 307 308 315 316 323 325 325 326 326 328 330 330 320 311 306 302 302 302 304 307 321 310 308 310 312 317
337 336 339 336 341 340 337 337 334 339 343 348 349 348 348 347 346 349 348 348 346 344 344 344 344 344 343 341 340 339 339 339 339 338 337 337 337 338 338 337 336 332 331 330 329 330 332 329 327 326 330 329 334 338 327 325 326 313 309 306 306 306 308 320 324 324 325 326 328 329 327 312 305 302 302 303 305 306 317 308 307 310 312 316 327
332 333 337 337 338 341 340 341 345 348 350 351 350 346 346 345 347 348 347 346 346 344 343 344 344 344 343 341 340 339 338 338 338 338 337 336 337 338 336 337 335 334 332 330 330 331 329 330 327 326 327 329 330 333 334 329 323 322 316 312 309 308 309 308 319 326 329 328 321 311 307 306 307 306 305 306 312 317 314 312 312 312 318 328 327
334 339 340 338 336 338 340 342 347 349 348 347 346 345 343 344 346 346 346 345 345 344 343 344 345 342 341 341 339 337 338 338 338 338 336 337 334 335 335 332 332 333 329 330 329 331 329 327 326 329 325 328 327 327 333 331 327 325 320 317 313 313 314 314 315 324 317 314 311 309 309 310 311 315 327 332 326 326 317 317 317 320 329 327 326
339 343 341 338 337 334 335 336 338 343 345 343 346 346 346 346 345 344 344 346 346 345 344 344 342 339 341 340 338 336 335 338 339 337 333 333 334 335 334 333 332 330 327 327 329 327 326 324 331 325 325 326 327 327 329 326 324 323 323 322 323 324 321 319 327 328 324 325 324 321 323 316 314 314 317 317 320 321 323 326 328 328 329 328 326
344 342 341 340 338 337 337 339 340 342 343 341 338 337 337 340 339 337 337 343 344 344 343 343 342 341 339 338 337 336 336 335 335 332 331 334 336 336 334 330 329 328 326 327 328 326 326 327 327 325 326 327 324 325 325 319 316 316 315 317 320 323 323 323 323 324 321 321 323 318 322 330 335 333 331 329 326 323 326 326 327 327 326 327 327
341 341 342 343 340 339 339 336 340 340 339 338 337 336 332 331 331 336 339 337 340 341 342 341 340 339 336 336 335 337 338 334 332 332 334 332 330 336 335 331 327 328 329 331 328 325 325 326 325 325 325 323 324 323 318 303 307 300 303 309 315 318 317 317 313 306 311 316 324 326 323 322 322 321 322 323 325 325 325 326 324 324 324 324 323
341 341 341 339 338 337 336 336 339 338 337 338 337 336 337 332 331 331 335 336 339 340 339 337 333 332 333 333 334 333 333 332 333 332 330 321 306 298 308 332 322 306 301 301 308 323 319 324 323 327 325 321 319 316 300 296 295 294 294 294 295 295 295 303 303 302 304 312 323 322 320 320 320 320 319 319 319 320 320 320 322 319 322 321 320
335 336 336 337 336 336 337 335 338 337 336 335 335 334 336 335 335 337 336 337 338 336 333 331 330 330 329 331 330 335 329 333 330 330 330 328 323 316 297 297 304 304 299 295 294 295 298 301 315 323 314 302 304 300 296 295 294 294 293 293 292 293 294 295 297 306 320 327 321 319 319 319 319 319 318 317 318 317 317 318 318 318 319 318 317
Wind_Speed
12 12 11 11 11 9 9 8 8 8 7 8 8 7 7 6 6 6 5 5 4 5 5 5 5 4 5 5 5 5 5 5 5 5 5 5 5 5 4 5 6 5 7 6 6 6 7 7 8 8 8 8 7 7 9 12 10 8 9 7 7 9 8 9 9 8 9 8 10 9 8 6 8 8 9 9 12 12 10 9 10 10 11 10 11
12 11 11 11 10 11 8 7 8 9 8 8 8 7 7 6 5 5 4 4 4 3 3 3 2 4 3 4 4 3 3 3 4 4 4 4 4 3 4 5 5 5 6 7 6 6 6 7 8 9 8 7 8 8 8 9 10 9 8 8 7 9 9 9 8 9 7 10 11 8 7 6 8 8 10 12 14 15 11 11 12 12 12 12 11
11 11 11 10 11 11 9 8 7 8 9 8 7 7 7 6 5 4 4 4 4 3 3 3 2 2 3 3 4 4 5 4 4 5 6 6 5 6 6 6 5 5 6 6 6 7 8 8 8 7 8 8 6 6 7 9 9 10 11 11 9 9 9 8 9 10 8 7 6 7 8 9 7 7 10 14 13 12 13 16 12 14 15 14 10
12 12 12 11 11 10 9 8 8 8 7 7 7 7 5 5 4 4 3 3 2 2 2 1 1 2 2 2 3 4 5 5 4 5 5 6 5 5 7 3 2 4 6 6 7 8 8 9 9 8 9 9 9 8 7 7 7 8 9 9 9 9 9 9 10 9 5 1 7 8 8 9 12 9 10 10 13 12 12 13 12 9 13 14 12
12 13 11 11 11 10 10 9 8 8 8 7 7 6 4 5 4 3 3 3 2 3 2 1 1 1 1 2 3 3 3 3 4 4 4 4 5 5 6 6 5 5 5 6 7 7 8 8 9 9 9 9 8 8 7 8 7 9 9 9 11 10 10 9 6 5 7 6 5 3 5 9 11 9 9 6 7 8 12 13 10 15 13 13 10
12 13 13 13 11 10 10 9 8 8 7 7 6 6 6 6 5 5 4 3 4 3 2 1 1 1 1 2 3 3 3 4 4 4 5 5 6 7 6 5 5 5 5 6 6 6 7 8 8 8 9 8 8 7 5 6 8 8 9 9 8 6 5 7 8 3 7 8 10 11 9 6 7 6 3 6 3 7 9 5 6 10 9 6 3
13 12 12 12 12 11 11 10 10 9 8 7 7 7 7 7 6 5 4 4 3 4 3 1 1 0 1 3 3 3 4 3 3 4 4 4 5 5 4 5 5 6 6 6 6 7 7 7 8 8 8 7 6 7 7 6 5 7 7 9 6 4 5 7 9 8 5 6 9 11 11 9 10 8 6 5 8 7 7 9 8 9 9 6 4
13 13 13 12 12 12 12 11 10 9 9 8 8 8 8 7 7 6 5 5 4 4 3 2 1 0 1 2 2 4 4 4 5 4 3 3 4 5 5 5 5 5 6 6 6 7 7 7 7 7 6 5 5 5 5 4 7 9 8 8 6 5 6 7 8 8 9 7 9 10 11 10 7 9 10 8 5 8 9 9 10 11 8 8 7
14 13 14 13 13 12 12 11 10 10 10 9 9 9 8 8 8 7 6 5 5 4 3 2 1 0 1 1 3 3 4 4 4 4 4 4 5 5 5 6 6 6 6 6 7 6 6 6 6 6 6 6 4 5 5 5 9 8 8 6 6 6 6 7 7 7 7 9 7 7 6 7 10 10 8 7 6 9 13 13 11 11 11 10 10
14 14 14 13 13 13 12 11 11 10 10 10 10 9 9 9 8 8 7 5 5 4 3 3 2 2 2 2 3 3 3 4 4 4 4 4 5 6 5 5 5 5 6 6 5 6 6 6 6 5 6 6 5 5 6 7 7 7 6 8 8 8 7 6 7 7 6 2 3 7 9 8 8 6 7 7 9 12 13 13 13 13 10 8 10
13 14 14 13 13 13 13 12 12 11 10 11 10 10 10 9 9 8 7 5 5 5 5 5 4 3 2 2 3 3 3 4 4 4 4 4 4 5 5 4 5 5 6 5 6 6 5 6 6 6 6 5 5 5 5 6 6 6 6 4 7 9 6 7 8 8 7 8 8 7 8 8 7 8 8 8 8 8 10 13 13 13 14 11 8
14 13 14 14 13 13 13 13 13 12 12 12 11 11 10 9 9 9 8 6 6 6 6 5 5 4 2 2 3 3 4 4 4 5 4 5 5 5 4 5 5 5 5 5 6 7 6 5 6 6 6 6 5 5 5 6 6 6 6 6 6 6 4 5 7 7 7 8 10 9 7 8 8 8 8 7 7 11 8 9 11 8 7 8 9
15 13 13 14 14 14 15 14 14 13 12 13 12 11 10 9 10 10 9 7 6 7 6 6 5 4 2 2 2 2 3 4 4 4 4 4 4 5 6 5 5 5 5 6 6 7 6 5 6 6 5 5 5 6 6 6 6 6 6 7 7 8 8 9 8 9 9 9 2 8 7 8 10 8 8 9 8 8 8 11 11 8 8 8 9
15 14 14 14 14 15 15 15 14 13 14 13 12 11 10 9 10 10 9 8 7 7 7 6 5 3 3 2 2 2 3 3 3 4 4 4 5 5 6 6 6 6 6 6 6 7 6 6 6 6 6 5 5 6 6 6 6 6 6 7 8 7 7 8 8 11 10 11 7 6 7 7 10 10 8 8 7 8 10 13 12 7 6 11 7
17 15 15 16 16 16 16 15 14 14 14 14 12 11 10 9 10 10 9 9 8 8 7 6 4 4 4 3 2 2 3 3 3 3 4 4 5 6 6 6 6 6 6 6 7 7 7 6 6 7 6 6 5 5 5 5 6 7 7 7 7 7 8 7 8 9 9 9 11 10 8 8 7 9 9 8 7 8 11 10 7 9 7 9 10
18 18 17 18 18 17 16 15 14 14 15 13 13 11 11 10 10 10 9 9 9 8 7 5 4 4 3 3 3 3 2 3 3 4 4 4 5 5 6 6 6 6 6 6 7 6 6 7 7 7 6 6 5 6 6 6 6 7 6 7 8 6 8 10 9 8 8 11 12 7 7 7 8 8 8 10 8 7 9 11 8 5 8 10 10
18 20 19 19 19 17 16 16 15 15 15 14 14 12 12 10 10 10 10 9 9 8 7 5 4 4 4 4 3 3 4 4 4 5 5 5 5 6 6 6 6 6 6 6 6 6 6 7 7 7 7 6 6 6 7 6 6 6 6 7 8 8 8 9 8 7 7 8 7 10 8 8 7 7 7 9 9 10 10 10 7 5 8 11 12
18 17 18 18 18 18 17 16 16 16 16 15 15 13 11 10 10 10 10 10 9 8 7 6 5 5 5 4 4 4 4 4 4 5 4 5 6 5 6 5 5 5 5 5 6 6 6 7 6 7 6 6 6 7 7 7 7 6 7 7 7 7 7 7 7 8 8 7 7 9 10 10 8 6 6 8 8 7 8 9 10 9 10 12 14
17 18 17 18 18 17 16 17 17 16 15 15 15 13 11 10 10 10 11 10 9 7 7 5 5 4 4 4 4 4 4 4 4 4 5 6 6 6 6 5 5 5 5 6 6 6 6 6 7 7 6 6 6 6 6 6 6 7 7 7 7 7 7 8 7 8 8 8 10 11 11 10 9 9 8 7 7 7 9 11 12 11 13 13 16
16 17 18 17 18 19 19 18 18 17 16 15 16 13 13 12 11 10 10 9 9 8 7 7 6 5 5 4 4 4 4 4 5 5 5 5 6 6 6 6 6 6 6 6 6 7 7 8 7 7 7 7 7 7 7 6 6 6 6 7 8 8 8 7 8 8 8 9 10 11 11 11 10 10 10 10 8 9 10 10 11 11 10 11 13
16 16 16 17 18 19 18 18 16 16 15 14 15 14 13 12 12 12 11 10 10 9 8 6 6 6 6 5 5 5 5 5 5 5 6 6 6 6 6 6 6 7 7 7 7 7 8 7 7 7 7 7 7 7 6 6 5 6 6 7 8 8 8 8 8 9 10 10 10 11 12 12 13 14 12 12 12 10 9 9 9 12 13 12 12
16 16 16 17 19 18 18 16 15 16 16 16 14 13 13 13 12 12 11 10 10 9 8 7 6 5 6 5 6 5 5 5 5 5 6 6 6 7 7 7 7 7 7 7 7 7 7 8 8 8 7 7 7 7 6 6 6 7 7 6 7 8 9 10 9 10 10 9 10 11 12 13 13 14 14 15 14 14 13 11 11 11 12 13 13
15 14 16 17 17 17 17 16 16 16 15 15 13 13 12 13 12 11 10 11 10 11 10 8 6 6 6 5 5 5 5 6 6 6 7 7 8 7 5 6 7 7 6 6 7 8 8 8 8 8 8 7 7 7 6 6 7 8 7 7 7 8 9 10 10 10 10 10 11 11 12 12 12 15 15 15 15 15 14 13 14 11 12 12 13
14 16 15 14 15 15 14 16 15 15 14 14 12 11 11 11 10 10 10 10 8 5 8 9 7 6 6 6 5 5 6 6 7 6 7 7 7 8 8 6 6 7 7 7 7 7 7 8 9 9 8 8 7 7 7 7 8 8 8 8 8 8 8 9 10 10 10 10 11 11 12 13 13 14 15 14 14 15 16 14 14 12 11 12 12
15 15 15 16 16 16 14 15 14 14 14 12 12 11 10 9 8 8 8 9 8 6 5 7 7 7 7 6 6 6 6 7 7 6 7 8 8 8 8 8 8 9 9 7 7 6 6 8 9 9 9 8 8 8 9 9 8 7 9 9 8 8 9 9 9 9 9 10 10 10 11 12 12 13 13 14 14 17 16 15 14 13 12 13 14
14 15 16 19 17 15 15 16 14 15 14 13 11 11 10 9 9 7 7 5 5 6 7 6 7 7 5 6 6 6 6 6 6 6 7 7 7 7 8 9 8 9 9 9 9 7 5 8 9 9 8 8 9 10 9 9 9 9 9 9 8 9 9 9 9 9 10 9 9 9 10 10 11 12 14 15 16 17 15 16 18 15 13 12 14
14 15 15 14 15 18 18 17 16 16 15 13 13 12 10 8 8 9 6 5 5 4 4 4 5 4 3 4 5 5 5 6 5 5 5 6 7 9 10 10 9 10 10 10 10 9 7 7 9 8 8 9 8 10 9 8 8 9 9 9 9 9 10 9 9 9 10 10 9 9 10 10 10 11 14 15 16 16 14 17 18 17 15 13 12
11 13 15 16 16 16 16 17 17 16 15 13 12 12 11 11 10 8 7 7 6 6 6 6 5 4 4 5 5 5 5 5 5 5 6 6 7 8 8 8 8 9 10 10 11 10 8 8 9 9 8 9 9 9 8 7 8 9 9 9 9 10 11 11 10 10 10 10 9 10 10 10 10 10 11 12 14 12 12 13 14 15 14 12 12
15 15 15 16 17 16 17 17 17 16 17 15 13 12 11 10 9 8 8 8 6 7 7 6 6 5 5 5 4 4 4 5 6 6 6 6 7 8 8 9 8 8 8 10 10 10 9 10 9 9 9 8 8 8 6 5 7 8 8 10 10 10 10 11 10 10 10 10 9 9 9 10 11 11 12 13 12 11 9 10 15 14 14 12 12
14 15 16 16 16 17 18 18 17 17 17 15 13 12 10 8 10 10 9 7 7 7 7 7 6 6 6 5 5 5 5 6 6 6 6 7 7 8 8 8 8 9 9 9 9 9 10 10 10 9 8 8 7 4 5 6 7 8 9 8 9 9 10 10 10 10 10 10 9 9 10 12 10 11 12 13 12 14 13 10 11 11 12 11 10
14 15 16 17 17 18 18 19 18 18 18 15 13 12 10 15 13 12 10 8 8 8 8 7 7 6 6 6 6 6 6 7 7 6 6 6 7 7 8 8 8 9 9 8 8 9 10 9 10 9 9 8 6 2 9 10 11 10 7 8 9 10 10 10 10 10 10 10 10 10 10 11 13 11 11 11 13 13 11 15 18 17 14 12 12
14 15 16 17 18 19 20 20 19 18 18 15 14 14 14 13 12 11 11 10 9 8 8 8 8 7 7 7 7 7 7 7 7 7 6 6 7 8 8 8 8 9 8 7 8 9 9 10 9 9 9 9 9 4 11 10 11 10 8 7 8 9 9 9 10 10 9 9 10 10 10 9 10 11 11 13 12 12 13 15 17 18 20 20 15
12 13 15 16 17 17 18 18 18 18 17 17 15 14 14 13 11 10 9 9 10 9 9 9 8 8 8 8 8 8 8 7 7 7 6 6 7 8 8 8 8 8 7 8 8 9 8 8 8 9 9 9 9 5 10 10 11 11 10 9 8 10 10 10 11 11 10 10 9 9 9 9 9 13 12 12 10 12 13 16 18 19 17 16 16
10 12 13 13 13 13 15 18 18 18 18 16 15 14 12 12 11 10 10 8 9 9 9 9 8 8 9 9 8 8 8 8 7 7 7 7 7 7 7 7 7 8 7 8 8 9 9 8 8 8 8 9 9 5 10 9 10 11 10 8 9 10 10 9 8 11 12 10 9 9 9 9 10 13 13 13 11 10 13 12 14 16 16 16 16
9 11 12 12 13 13 15 16 16 17 15 14 13 12 11 11 11 11 10 9 9 9 9 9 9 9 9 9 9 9 8 8 8 8 8 8 7 7 7 7 7 8 8 7 7 8 8 8 8 8 8 8 8 5 10 10 10 11 10 8 8 9 9 8 8 10 11 12 10 9 9 9 9 10 10 12 9 11 11 11 13 17 17 16 15
9 10 10 11 12 13 14 15 14 14 14 13 13 12 12 12 11 11 10 10 10 9 10 9 10 10 10 10 10 9 8 8 8 8 8 8 8 7 7 6 7 7 7 7 8 8 8 8 8 8 9 9 8 8 9 10 10 10 7 6 8 9 10 9 9 10 12 9 9 9 8 9 10 10 12 15 12 10 11 13 15 17 18 17 15
9 10 11 11 12 13 14 13 13 13 13 13 12 12 11 11 12 11 11 11 11 10 10 11 11 11 11 10 10 9 8 8 8 8 8 8 8 7 7 7 7 7 7 7 8 8 7 8 9 8 7 8 10 5 9 9 9 7 5 6 7 7 8 10 12 11 10 10 9 8 8 9 9 9 12 13 13 11 11 12 15 18 17 17 16
9 10 10 11 11 11 12 13 13 13 12 11 11 10 10 10 11 11 12 11 11 11 11 11 11 11 11 10 9 9 9 9 8 9 9 9 8 7 7 6 7 7 8 7 7 7 7 7 8 10 8 9 10 11 4 8 8 9 6 6 6 6 8 8 12 11 10 9 10 10 9 9 9 9 11 13 13 12 10 11 13 16 18 17 17
10 11 12 12 11 11 12 12 12 12 11 10 10 10 10 10 11 12 12 12 12 12 12 12 11 11 10 10 9 9 9 9 9 9 9 9 8 7 7 6 7 7 7 7 8 7 7 7 8 10 7 7 7 5 5 2 3 3 4 4 5 6 7 9 11 11 10 9 10 9 10 10 10 10 13 12 12 10 8 10 10 13 17 18 17
11 11 11 11 11 11 11 11 12 11 11 10 9 9 10 10 11 12 12 12 12 12 11 10 10 10 10 9 8 9 9 9 9 9 8 8 7 8 9 8 8 7 7 7 6 7 8 8 5 7 9 10 6 3 4 6 6 5 4 3 5 6 8 9 10 10 11 10 9 9 9 10 10 9 9 11 13 13 8 8 10 10 13 18 15
13 12 13 11 11 11 11 11 9 9 8 8 8 8 9 9 10 10 12 12 11 11 10 10 10 11 10 10 9 9 10 10 9 8 8 9 8 8 8 8 8 7 7 6 6 7 8 9 8 7 7 6 7 6 8 8 7 5 3 1 4 6 7 8 9 10 10 11 9 9 9 8 6 7 10 13 13 13 11 7 8 8 11 16 17
11 13 11 10 10 10 10 10 7 7 7 7 7 8 8 9 10 11 12 11 11 10 10 10 11 11 11 10 11 9 10 9 9 9 9 9 8 8 7 8 8 7 6 6 6 7 8 8 8 5 5 8 10 4 4 6 7 5 3 3 4 5 4 6 8 9 9 10 10 9 10 7 9 12 14 13 13 12 13 8 10 15 19 19 16
13 12 10 10 9 9 9 9 8 8 6 6 7 8 8 8 10 11 10 10 10 10 11 11 12 12 11 11 10 10 9 8 8 9 9 9 8 8 8 7 8 8 7 8 8 7 8 8 7 6 8 8 6 4 6 5 6 3 4 4 6 6 5 6 7 9 10 10 9 9 9 9 14 15 14 13 12 13 10 9 15 18 17 18 15
12 11 10 10 8 7 8 8 7 6 7 7 7 7 7 8 9 8 9 9 10 11 11 12 12 12 11 10 10 10 10 8 8 8 9 9 8 7 6 6 8 9 7 7 8 7 6 7 9 8 7 4 1 2 1 4 2 4 5 7 8 9 8 7 8 9 9 9 9 9 9 14 16 16 14 13 12 11 8 13 15 16 17 14 10
11 12 10 8 8 7 5 4 3 3 4 3 4 6 8 10 9 8 8 9 10 10 10 10 10 10 10 9 10 9 9 9 9 8 9 8 9 9 7 5 4 7 9 8 7 7 6 6 8 8 6 5 3 5 3 1 2 3 5 9 9 10 12 10 8 10 10 9 9 13 16 15 14 15 15 12 9 8 11 14 16 16 13 8 9
9 9 8 6 6 6 5 5 5 4 4 4 4 5 7 8 7 7 8 8 8 8 9 10 8 7 9 10 10 10 9 9 9 7 8 8 9 9 7 5 4 8 9 7 6 4 7 6 7 7 8 7 6 5 5 1 2 8 9 8 10 12 14 13 13 13 17 18 15 14 16 15 13 11 7 4 7 8 10 14 14 12 8 8 9
9 8 7 5 5 4 4 4 4 4 4 5 5 5 5 5 6 7 8 7 7 8 9 9 9 10 9 9 10 7 8 8 7 8 9 11 8 8 5 4 4 9 9 5 7 7 5 7 5 8 9 7 6 5 5 6 7 7 8 9 9 9 9 10 8 7 6 8 11 12 11 14 12 12 11 7 3 9 10 8 7 9 9 9 10
9 8 6 6 5 4 4 3 3 2 1 3 5 5 7 7 7 9 9 6 7 8 9 9 9 7 6 6 7 12 11 7 8 9 11 7 3 1 3 2 8 11 10 7 7 6 5 5 7 7 6 5 7 6 6 8 8 8 8 8 8 8 8 8 9 8 10 11 11 11 12 8 2 3 3 5 5 2 4 7 8 8 9 10 12
9 8 6 6 5 6 5 4 4 2 1 1 3 5 8 9 7 7 6 7 7 8 8 7 6 5 7 8 9 7 5 6 7 8 2 4 2 2 2 4 2 2 3 2 3 4 6 5 5 5 3 4 4 4 6 6 5 5 6 7 7 7 8 9 9 11 11 11 9 9 7 8 8 8 7 8 5 4 7 7 9 9 9 10 10
9 8 8 8 7 6 4 3 3 2 1 1 2 3 4 7 8 6 4 5 5 5 7 8 10 10 10 11 9 9 9 7 6 6 4 6 8 10 9 0 5 5 10 11 9 4 5 5 4 4 5 3 4 5 8 10 9 9 9 8 10 12 13 12 15 19 10 7 9 7 7 7 8 7 8 8 9 8 8 9 7 8 9 9 10
8 8 7 6 6 5 4 4 3 2 1 0 2 3 2 4 4 4 3 4 5 6 7 9 9 10 7 8 5 5 5 8 9 4 8 7 5 8 15 16 13 9 10 12 12 11 12 11 6 2 7 12 10 5 7 8 10 10 9 10 10 11 13 14 16 10 7 6 7 6 6 7 7 8 8 9 9 9 9 9 9 8 7 9 10
Wind_Direction
174 171 171 164 168 172 173 170 176 170 171 176 181 183 182 184 175 179 181 191 211 202 210 218 222 220 225 240 256 248 250 254 252 258 252 247 259 256 257 245 182 277 287 266 252 252 256 261 264 260 257 253 236 223 243 252 250 244 254 262 274 284 268 244 239 252 259 261 265 267 277 264 257 249 246 254 264 253 242 253 259 249 228 215 225
162 164 167 172 177 171 177 178 176 181 180 183 186 185 185 182 178 170 173 185 208 221 230 226 241 249 255 255 255 273 276 274 278 261 276 292 270 234 271 278 282 231 228 237 243 256 253 256 257 266 264 252 241 240 237 237 243 241 244 253 238 245 255 256 264 254 235 244 259 265 258 253 243 245 247 244 251 256 247 242 243 252 252 237 223
163 167 175 182 178 176 174 183 183 186 184 187 183 183 175 179 185 184 190 202 201 209 227 222 222 242 273 282 282 284 264 269 291 314 302 290 298 285 271 262 253 260 271 272 259 252 254 266 275 274 263 261 244 232 234 238 236 242 242 241 242 220 243 261 258 246 248 231 246 282 269 268 238 234 242 244 239 253 253 247 246 232 238 245 234
174 178 182 186 184 178 176 184 187 184 181 180 175 167 171 182 181 181 183 194 184 162 206 253 271 302 291 294 304 304 326 325 288 274 270 272 280 279 253 246 275 291 298 294 291 290 288 284 286 281 280 278 277 255 229 228 233 240 238 241 248 256 257 263 235 226 227 232 258 227 246 251 264 242 230 229 231 232 247 251 246 264 253 250 242
180 185 181 189 182 181 177 186 182 183 180 181 179 175 183 174 165 172 160 144 139 137 154 149 146 235 274 288 270 266 257 271 288 288 306 321 296 290 0 10 342 328 315 303 300 298 301 300 298 295 289 286 271 269 263 259 241 223 223 226 230 241 251 250 242 226 235 224 266 295 261 242 242 259 269 250 242 243 244 248 264 248 243 246 246
184 184 185 188 182 180 176 179 183 179 174 171 176 163 163 146 149 151 132 138 125 120 101 124 78 315 291 299 301 306 315 319 321 323 315 329 325 346 337 348 333 322 311 303 304 308 303 300 294 288 288 288 291 284 304 328 307 327 301 290 279 245 251 263 254 217 249 239 222 240 257 275 291 316 320 263 252 251 259 258 248 268 268 296 334
186 187 188 184 179 179 176 178 181 176 175 164 163 151 148 147 149 147 140 135 127 127 136 150 157 204 305 323 327 318 305 294 321 319 320 318 326 323 321 324 330 323 320 322 320 312 308 304 299 293 290 294 294 299 288 291 301 282 300 280 279 291 272 269 269 273 217 202 240 248 263 262 269 279 267 329 284 254 251 257 266 273 268 254 266
182 186 187 186 178 178 179 174 182 172 162 156 154 152 150 148 150 151 150 145 143 148 159 154 182 165 321 299 305 310 309 321 312 294 276 292 307 316 328 314 322 323 314 312 312 313 313 311 311 306 303 294 284 275 298 332 323 290 261 272 288 275 265 262 272 269 260 260 216 231 241 249 236 257 236 239 249 275 271 257 253 252 242 236 218
182 186 183 183 178 176 175 172 178 164 154 159 156 154 152 152 154 159 155 157 157 157 171 164 204 265 278 308 305 299 307 306 311 323 338 317 300 309 310 317 309 310 306 304 305 314 312 311 315 311 303 297 296 285 261 230 241 264 274 276 263 256 250 249 255 263 261 262 257 250 262 247 255 252 261 248 247 253 256 253 254 255 255 241 233
184 187 181 182 178 178 173 173 171 161 156 160 154 155 157 158 163 166 162 171 158 168 181 183 190 204 223 235 280 300 300 304 304 305 291 312 309 310 315 310 311 304 305 305 308 304 303 308 302 298 297 307 296 298 304 296 293 288 285 279 302 291 281 278 265 254 255 257 274 250 250 259 253 245 248 247 247 248 256 263 256 254 249 250 250
183 183 181 180 178 179 169 173 167 155 159 161 160 161 162 166 165 174 169 169 165 177 192 189 197 201 233 264 286 279 294 295 294 299 313 312 316 317 310 322 307 310 317 314 310 302 305 311 308 314 311 307 294 295 291 295 293 284 285 293 263 275 292 304 298 290 278 267 251 243 247 242 250 257 245 234 234 248 242 248 258 254 254 256 249
182 183 180 179 176 180 170 171 162 161 161 166 165 165 167 169 170 178 173 175 178 186 196 197 198 199 247 256 269 290 302 299 301 308 313 315 318 321 322 311 313 315 308 315 309 322 331 318 315 312 317 313 310 309 302 301 301 304 298 298 299 287 291 266 268 279 277 272 282 277 257 263 248 242 249 241 244 256 254 270 263 267 279 268 266
181 182 182 181 182 180 176 166 166 166 166 173 168 170 168 171 176 179 180 180 189 192 201 195 204 206 224 254 270 297 296 292 304 304 309 314 322 318 315 311 313 310 303 313 322 318 326 318 317 316 312 304 307 305 305 303 303 303 295 285 285 285 279 282 284 272 272 278 223 270 270 272 267 248 247 252 236 241 217 245 254 259 266 271 266
183 183 188 186 187 181 172 167 169 168 170 173 173 172 168 176 179 185 182 184 191 199 201 198 203 216 195 231 273 292 285 298 295 299 316 320 314 305 310 309 308 304 315 315 318 324 314 318 315 312 307 298 288 288 288 293 298 291 289 287 287 293 287 287 283 287 287 284 268 257 251 259 279 270 250 247 248 243 249 248 255 250 224 262 268
180 190 194 195 190 181 171 170 170 171 171 173 174 174 171 179 181 186 186 186 196 200 199 204 205 192 201 218 262 262 288 290 296 303 298 299 297 300 300 301 302 309 313 313 310 311 315 314 318 308 309 302 291 291 295 311 307 301 299 295 293 292 297 293 289 287 287 287 288 290 304 282 261 269 271 252 237 244 248 251 247 251 253 248 248
183 186 192 196 192 182 172 170 172 172 171 174 174 175 178 180 181 186 191 189 196 200 200 210 204 203 212 243 249 259 269 282 278 263 275 281 291 295 295 291 290 295 300 300 302 307 316 314 311 310 308 308 304 303 304 307 305 307 305 304 297 302 301 301 303 295 297 310 311 297 261 263 275 290 287 268 261 261 249 253 251 235 252 265 250
185 183 187 196 192 184 176 171 172 174 172 175 173 178 179 179 180 186 191 189 198 199 207 204 209 212 224 230 241 258 258 264 274 297 300 295 293 292 291 304 305 290 283 289 299 305 309 310 307 308 307 305 306 301 301 299 298 296 303 298 295 303 310 308 302 303 305 287 272 288 282 269 267 258 267 280 272 252 251 255 253 258 249 255 257
187 182 174 189 196 186 177 173 174 174 174 170 172 176 179 179 182 186 191 193 197 199 206 202 208 217 227 230 236 241 263 269 276 279 279 287 288 283 288 291 302 304 298 297 297 300 302 306 303 300 305 307 308 310 312 307 309 305 307 298 302 313 297 291 304 308 300 287 271 286 293 292 270 243 234 238 246 249 271 279 266 231 241 250 254
186 183 177 191 193 182 176 174 174 174 172 168 169 173 177 181 185 190 192 195 196 203 203 205 209 218 218 231 232 238 240 255 276 281 278 276 279 291 296 305 299 293 292 294 298 299 301 303 301 297 293 299 303 307 305 305 304 302 305 307 310 311 311 306 306 313 315 314 308 305 304 296 288 284 268 228 233 244 243 250 253 246 236 236 254
190 182 181 191 199 183 177 174 175 171 172 170 171 176 180 181 184 189 191 193 199 201 203 204 205 218 223 217 233 235 238 253 252 260 273 281 287 289 295 297 303 308 306 306 297 302 306 302 299 303 299 302 306 305 311 308 301 293 300 308 314 310 301 303 308 308 316 318 315 308 305 303 302 300 294 281 245 219 239 247 251 252 249 246 252
192 183 182 185 191 182 177 175 174 168 172 176 177 181 183 180 182 190 190 194 198 201 202 206 212 212 219 228 236 229 238 244 248 255 264 270 277 281 283 292 301 291 293 292 297 302 302 296 299 301 303 302 297 300 304 307 298 296 298 301 302 304 305 305 304 305 312 317 314 310 306 307 310 307 302 299 289 276 250 244 244 252 254 246 235
192 185 185 192 190 179 176 175 170 169 176 183 181 182 184 183 181 189 194 198 204 192 205 205 207 218 220 227 229 235 239 237 250 261 263 264 271 272 265 263 273 286 291 302 303 303 297 300 297 299 301 297 295 294 300 303 299 296 292 299 303 305 307 305 305 309 310 316 318 314 312 313 315 314 311 305 302 297 287 269 256 249 250 250 244
190 181 183 195 198 180 173 172 172 172 179 185 181 184 183 184 185 182 195 198 207 197 192 194 205 212 220 224 235 234 228 238 249 258 258 256 263 277 294 276 270 277 282 290 295 294 294 292 294 291 293 291 286 284 290 291 295 290 285 294 297 300 302 301 302 307 310 316 314 317 319 321 322 322 319 312 307 299 294 278 260 255 256 247 245
193 186 187 198 193 177 167 172 172 172 179 183 180 184 182 184 187 186 194 199 214 204 170 180 198 213 220 225 226 227 238 253 254 249 257 264 271 262 256 285 304 299 292 287 281 282 287 292 291 287 282 283 280 282 280 287 285 280 281 283 294 301 299 298 301 305 310 312 313 316 323 327 330 326 321 317 315 311 304 291 275 256 248 254 246
191 185 191 184 185 176 168 172 171 173 176 175 176 180 176 181 188 197 201 196 192 199 202 175 194 206 207 215 225 231 233 237 248 260 270 274 290 315 330 313 286 272 279 285 280 275 287 292 287 287 286 283 283 285 283 282 276 277 280 285 293 297 297 295 299 300 303 307 310 314 323 330 332 328 324 321 319 317 313 306 288 274 279 270 260
194 190 184 183 180 172 169 173 172 173 172 168 169 174 174 176 188 208 204 199 182 192 194 194 207 208 205 214 221 237 250 259 271 282 284 293 298 285 270 266 282 308 312 300 295 293 302 297 294 288 299 301 290 283 277 280 283 285 285 285 289 291 293 292 297 299 301 307 311 315 322 325 330 330 329 322 319 318 315 309 303 296 285 275 267
198 192 188 181 175 176 175 172 171 170 166 165 167 174 176 172 194 202 198 191 182 189 186 196 217 232 208 219 230 234 246 257 258 263 273 280 287 299 311 317 311 299 299 294 294 299 296 289 286 281 273 273 277 279 281 282 281 278 274 281 286 290 289 295 297 295 298 304 311 316 314 328 325 321 323 321 317 313 311 308 306 292 282 280 278
193 193 190 188 181 176 172 170 170 166 163 162 169 169 176 174 198 197 195 194 180 184 188 195 213 220 221 227 238 244 245 251 261 271 273 281 290 294 293 293 293 289 289 295 299 298 301 300 302 299 293 287 282 281 280 280 277 271 277 283 290 293 292 296 293 293 293 303 311 310 319 319 313 312 309 305 307 304 307 306 316 312 298 283 276
191 192 193 188 184 176 174 175 173 167 166 164 168 172 177 182 185 197 200 194 178 174 187 197 197 206 211 224 235 239 241 248 251 251 264 273 281 283 280 279 282 288 293 298 297 301 307 300 290 287 287 281 271 269 280 295 287 286 290 287 286 288 291 293 293 295 295 300 307 312 314 319 316 303 290 282 281 284 294 303 311 313 314 311 296
194 194 192 191 185 177 179 178 174 171 167 166 169 174 167 170 197 196 201 191 177 179 186 196 202 202 206 214 218 223 234 245 250 255 260 271 274 282 288 288 292 295 295 296 305 299 287 283 287 291 289 281 278 303 32 306 301 281 287 290 290 290 291 290 291 292 289 296 308 313 313 313 307 294 283 274 278 292 288 281 295 301 303 302 300
196 192 192 190 184 182 182 182 176 171 168 165 168 150 166 200 196 195 189 191 181 181 190 196 202 204 206 207 212 218 229 236 243 248 253 262 275 278 278 284 290 293 296 295 286 288 292 294 294 293 288 287 289 237 178 220 227 237 256 277 282 286 288 289 289 287 292 297 303 308 309 307 307 304 302 300 297 291 295 301 300 297 287 277 290
197 192 191 190 190 188 188 185 176 170 167 166 161 167 187 199 196 193 189 185 187 184 193 197 200 201 203 207 212 221 224 234 238 246 252 259 272 278 278 280 286 289 291 293 294 296 294 288 288 291 293 290 289 165 186 206 220 215 223 256 276 284 286 289 291 292 290 295 305 309 307 304 304 310 310 309 300 294 296 302 308 305 299 288 257
198 194 194 195 195 193 190 184 174 171 169 168 166 179 187 193 191 191 191 182 184 189 192 199 199 201 202 203 213 219 225 230 235 241 249 259 263 271 272 275 284 292 296 293 289 283 285 291 291 292 289 286 285 195 190 202 215 217 217 233 265 274 281 289 297 295 292 296 305 305 302 298 300 307 305 308 305 312 312 317 317 310 297 293 299
200 195 194 192 194 193 191 183 177 171 169 169 173 183 184 184 187 187 190 187 185 188 195 199 201 203 203 206 210 219 226 231 233 238 245 254 264 265 271 279 286 284 282 288 294 291 293 292 289 285 283 283 285 216 195 201 217 217 221 223 261 271 280 297 311 299 295 291 293 298 300 297 298 304 307 309 314 317 316 318 315 318 318 313 306
189 188 189 186 189 185 185 180 177 173 169 171 175 181 181 182 186 188 187 189 188 195 199 200 202 203 207 210 213 217 227 231 234 239 245 253 255 259 267 277 282 290 291 292 299 295 285 288 293 296 296 299 296 161 189 203 214 218 217 221 260 267 277 277 269 277 279 277 290 291 295 291 289 297 298 306 308 314 320 312 307 316 322 318 313
186 178 179 176 184 181 177 177 174 171 172 177 179 184 188 185 189 191 186 189 189 199 205 205 206 206 209 211 214 218 225 232 239 243 248 247 248 254 262 267 274 277 286 291 283 286 288 288 293 294 294 297 300 168 201 203 214 218 200 233 254 266 276 285 278 267 272 282 287 287 290 288 287 293 296 303 309 323 318 315 313 319 323 319 313
171 171 174 174 177 175 173 169 170 173 177 183 182 187 195 192 190 196 190 193 195 199 209 207 209 210 212 211 213 218 223 232 236 242 244 243 243 251 256 254 262 273 276 281 289 289 295 289 290 300 302 301 292 238 199 208 212 198 191 254 270 288 306 307 302 301 302 292 286 281 285 284 284 285 292 301 314 336 317 313 318 322 323 321 317
160 157 160 166 169 167 163 170 169 177 182 185 187 187 192 200 200 196 197 198 202 206 209 210 211 214 214 214 214 215 224 232 236 241 240 241 243 243 250 251 264 279 280 283 288 283 280 293 298 295 338 329 317 325 228 204 202 189 227 274 291 295 294 292 292 304 306 300 296 281 265 277 279 278 291 304 318 330 319 313 315 319 320 322 321
153 157 155 160 162 165 162 170 171 179 183 188 194 197 197 202 211 212 206 204 206 212 212 210 211 214 216 218 216 218 227 237 236 236 240 246 244 246 250 256 266 260 266 272 269 282 295 300 321 326 320 305 304 341 282 204 174 167 228 269 285 286 287 294 307 309 309 307 304 300 275 260 266 280 294 307 317 326 312 306 305 312 318 324 326
148 150 148 153 156 162 169 171 178 182 183 191 196 208 218 210 213 217 221 213 213 216 215 212 213 214 216 219 222 223 227 236 241 240 243 245 244 244 244 244 244 262 282 292 301 299 298 296 307 294 297 299 306 338 250 167 151 169 230 297 293 285 296 305 307 309 308 303 305 304 296 273 258 272 300 313 316 317 311 305 304 306 318 321 320
152 145 147 150 159 165 173 177 177 178 181 193 197 208 218 218 221 222 226 225 218 215 214 210 213 217 215 214 220 224 229 230 233 243 244 240 236 241 247 251 260 265 270 279 288 288 291 289 296 297 289 306 315 265 168 152 116 106 120 268 289 293 301 308 307 307 304 308 310 311 313 321 13 345 326 319 312 309 309 303 295 299 310 304 306
135 134 150 151 160 162 172 174 165 174 188 194 199 210 218 223 225 231 231 228 224 218 213 210 215 216 218 215 216 216 228 228 229 231 235 240 241 249 258 261 262 264 260 270 280 279 281 293 290 280 315 289 238 224 117 125 121 113 128 188 285 299 335 308 301 292 297 302 305 308 307 336 356 333 321 314 306 303 307 307 297 302 305 308 311
137 149 151 156 153 165 175 182 182 187 186 196 207 212 219 224 230 234 236 233 224 221 215 211 215 214 215 219 218 216 220 222 224 227 234 237 239 240 241 257 261 255 261 256 256 266 273 281 287 290 284 276 359 58 19 110 129 131 186 236 240 275 304 282 281 289 292 298 297 300 306 335 330 316 307 304 299 300 306 307 308 310 309 308 310
158 152 155 160 146 173 176 196 201 193 192 194 212 217 225 235 241 243 242 238 231 223 216 214 213 214 215 220 220 216 217 224 227 228 231 235 236 237 247 246 245 241 237 244 247 251 264 273 292 306 284 306 192 160 52 61 147 170 239 244 248 247 256 273 289 287 286 289 297 303 308 310 306 301 294 294 297 297 302 307 312 314 316 317 329
161 158 156 163 161 159 165 153 130 114 126 161 194 230 233 241 245 249 248 242 235 230 221 220 220 222 226 227 221 219 221 220 229 233 239 235 239 230 237 240 267 277 253 247 253 247 265 306 294 277 287 277 315 147 161 122 215 314 301 271 253 259 267 257 260 272 278 284 292 297 293 291 290 289 287 281 290 317 325 320 316 315 314 342 339
136 117 134 160 150 162 161 164 153 164 182 196 226 240 251 254 261 256 254 250 241 236 227 229 224 225 232 230 227 220 225 230 234 243 251 238 242 241 218 217 238 249 245 247 263 269 278 278 276 287 298 319 315 338 89 72 348 356 333 346 313 286 275 266 248 262 269 277 279 282 285 282 275 270 270 302 4 331 329 330 315 322 338 340 350
131 126 130 142 151 165 168 187 188 179 209 210 207 222 248 264 260 263 255 246 244 232 233 233 227 231 223 223 232 230 235 228 229 239 246 243 233 237 225 191 215 258 255 231 236 259 242 237 270 299 309 310 317 334 42 24 12 351 342 331 324 318 310 297 289 300 312 317 309 304 295 291 280 281 291 338 28 334 342 326 345 345 342 349 350
119 122 129 129 131 136 106 88 82 81 24 323 312 288 265 250 260 273 274 255 229 237 240 234 235 233 228 228 229 235 238 229 223 231 246 244 260 185 127 231 255 250 234 233 255 268 294 304 294 297 316 325 321 328 34 12 355 343 331 328 323 325 332 334 317 331 333 313 305 295 288 292 297 254 208 199 152 197 296 347 352 348 349 348 348
123 119 119 104 94 91 93 94 105 98 80 303 282 289 302 303 280 265 280 270 249 233 238 251 252 223 233 232 232 222 224 237 246 253 62 47 7 306 147 149 50 353 352 293 262 258 275 289 301 320 317 311 320 351 29 10 335 319 300 312 322 328 330 319 318 322 313 301 291 292 316 346 352 356 356 357 1 17 16 358 357 356 357 356 354
117 116 107 105 103 105 107 108 112 104 120 275 288 294 300 295 302 289 256 257 248 243 247 237 243 236 230 231 215 226 219 221 228 246 143 101 68 46 9 258 127 61 60 50 58 44 22 346 333 37 36 356 351 19 6 340 325 311 298 276 269 278 280 283 291 299 290 278 283 319 359 4 354 6 5 3 356 3 8 359 358 356 0 2 356
125 117 114 103 102 114 124 123 118 106 159 194 273 288 286 303 327 338 322 276 255 257 260 266 267 263 301 309 281 183 254 253 244 183 177 176 147 61 38 39 55 74 72 77 82 81 62 49 23 61 83 71 69 44 353 325 318 308 299 289 285 281 284 285 289 300 285 271 322 3 9 12 6 10 16 6 2 3 4 5 359 357 1 354 357